STARLINK-35532, 66091

Orbit data source: Space-Track

STARLINK-35532, 66091 is a payload satellite owned by SpaceX/Seattle (US) in LEO that was launched on Sun, 19 Oct 2025 UTC via an FALCON 9 launch vehicle from the Air Force Western Test Range (AFWTR). Payload-class satellites include a variety of spacecraft equipped with specific instruments for various scientific and technological missions. These include communications satellites like Starlink; space stations such as the ISS; scientific satellites like the Hubble; Earth observation satellites from companies like Planet Labs, Umbra, and HawkEye 360; GPS; miniature CubeSats for education and research; and military/defense satellites.

Loading next visibility...
Identifier
66091, 2025-236F
Orbit
LEO
Country
Flag of USUS
Related business
Manufacturer
SpaceX/Seattle
Mission
Operational Commercial Communications
Bus & Motor
STARLINK V2MO, Unknown motor
Mass
575 kg wet, ~530 kg dry
Launch date (UTC)
2025-10-19 (6 months ago)
Launch vehicle
FALCON 9
Launch site
Air Force Western Test Range (AFWTR)
Object type
Payload
Rocket body
Debris
Shape & HBR
Box + 2 Pan, 17.7 m
Radar Cross Section
36.964 m²

Expand to show TLE details & history
Last TLE update: 13 hours ago

TLE from 13 hours ago
0 STARLINK-35532
1 66091U 25236F   26095.23441832  .00032443  00000-0  11025-2 0  9996
2 66091  53.1590 340.2234 0001151  68.7543 291.3581 15.30206767 27012
Epoch: 2026-04-05T05:37Z
TLE epoch observation values (Epoch: 2026-04-05T05:37:33.742Z)
Latitude
-0.00001°
Longitude
62.29004°
Altitude
475.807 km
Speed
7.629 km/s
True Right ascension
22h 40m 53s
True Declination
0° 00' 00"
Sunlit
Object was in daylight at epoch
Visualization orbit readout
Latitude
Unknown
Longitude
Unknown
Altitude
Unknown
Speed
Unknown
Apparent Right ascension
Unknown
Apparent Declination
Unknown
Sunlit
N/A
Visualization observer readout
Local Sidereal Time
00:10:32
Azimuth
Unknown
Elevation
Unknown
Doppler factor
Unknown
Orbital elements
Apogee altitude
476.24 km
Perigee altitude
474.663 km
Semi-major axis
6,853.588 km
Eccentricity
0.00012
Inclination
53.159°
RAAN
340.2234°
Arg. of periapsis
68.7543°
True anomaly
291.34582°
Mean anomaly
291.3581°
Eccentric anomaly
291.35196°
Mean motion
3.82531 °/min
Orbital period
94.11 mins
BSTAR
0.0011025
Loading maneuver chart data...
Computing Atmospheric mass density...
Loading historical data...
Loading historical data...
Loading historical data...
Loading historical data...
Loading historical data...
Loading historical data...
Loading historical data...

Documentation

Showing up to 5 results
|